{"data":{"norad_id":58739,"epoch":"2026-09-20T05:07:05.473056Z","epoch_age_seconds":174366,"freshness":"STALE","line1":"1 58739U 24005M   26263.21325779  .00000217  00000+0  17408-4 0  9991","line2":"2 58739  43.0034 201.1755 0001259 279.8214  80.2496 15.27578027150198","mean_motion":15.27578027,"eccentricity":0.0001259,"inclination_deg":43.0034,"raan_deg":201.1755,"arg_perigee_deg":279.8214,"mean_anomaly_deg":80.2496,"bstar":1.7408e-5,"rev_number":15019,"period_min":94.266870467364,"perigee_km":482.1911798445,"apogee_km":483.91882799109,"semimajor_km":6861.1920039178,"source":"CELESTRAK","updated_at":"2026-09-21T09:00:33.953464Z"}}